[Date Prev][Date Next][Thread Prev][Thread Next] - [Date Index][Thread Index][Author Index]

2 Line ISS Keps 3-22



ISS
1 25544U 98067A   06081.03127181  .00014237  00000-0  99602-4 0  5766
2 25544 051.6434 275.9608 0008874 032.1740 106.0687 15.74522625419423
----
Via the sarex mailing list at AMSAT.ORG courtesy of AMSAT-NA.
To unsubscribe, send "unsubscribe sarex" to Majordomo@amsat.org



AMSAT Top AMSAT Home